Voltar ao catálogo

COSMOS 1732

AtivoMilitarLEO
NORAD 16593·PAYLOAD·🇷🇺 Russia

Lançado Feb 11, 1986 de Plesetsk Cosmodrome

Loading…

Próximas Passagens (próximas 24 horas)

TLE

AtualizadoSource: Space-Track

Época: Sep 14, 2026, 12:31 UTC

1 16593U 86015A   26257.52220704 -.00000006  00000-0  81418-4 0  9991
2 16593  73.6116 185.6391 0027298 297.3535  62.4731 12.41027946838902

Acompanhe COSMOS 1732 em tempo real com AllMySat

Download on the App Store